Meteo Giornale » Osservazioni meteo Gran Bretagna » Londra-Heathrow AP

ore: 06:20 - Osservazioni Meteo Londra-Heathrow AP
Lat. 51° 29' N Lon. 0° 27' W Alt. 24 metri s.l.m.

molto_nuvoloso Europe/London

11 °C

Molto Nuvoloso

Temp. 24 Ore

10 °C

16 °C

Sud

7.4 Km/h

Dew point 10 °C

Umidità 93 %

Visibilità  10 Km

Il sole sorge alle ore 07:38

Il sole tramonta alle ore 17:53

Data e Ora Cielo e Fenomeni T °C DP °C Um. % Pres. hPa Vis. km Vento km/h
Oggi h: 06:20 molto_nuvoloso Molto Nuvoloso 11 10 93 1007 10 S 7.4
Oggi h: 04:50 molto_nuvoloso Molto Nuvoloso 11 10 93 1008 10 S 9.3
Oggi h: 03:50 coperto Coperto 11 11 100 1008 10 S/SE 7.4
Oggi h: 03:20 coperto Coperto 12 11 93 1009 10 S 7.4
Oggi h: 02:50 coperto Coperto 11 11 100 1009 10 S 7.4
Oggi h: 02:20 coperto Coperto 11 10 93 1009 10 S 9.3
Oggi h: 01:50 molto_nuvoloso Molto Nuvoloso 11 10 93 1009 10 S 7.4
Oggi h: 01:20 molto_nuvoloso Molto Nuvoloso 11 10 93 1010 10 S 7.4
Oggi h: 00:20 poco_nuvoloso Poco Nuvoloso 10 10 100 1010 10 N 5.5
Ieri h: 23:50 nuvoloso Nuvoloso 11 10 93 1010 10 N 3.7
Ieri h: 23:20 molto_nuvoloso Molto Nuvoloso 11 10 93 1010 10 N 5.5
Ieri h: 22:50 sereno Sereno 11 10 93 1010 10 S/SO 9.3
Ieri h: 22:20 nuvoloso Nuvoloso 12 10 87 1010 10 S/SO 7.4
Ieri h: 21:50 nuvoloso Nuvoloso 12 10 87 1010 10 S/SO 9.3
Ieri h: 21:20 coperto Coperto 12 10 87 1010 10 S/SO 7.4
Ieri h: 20:50 coperto Coperto 12 10 87 1010 10 N 5.5
Ieri h: 20:20 nuvoloso Nuvoloso 13 10 81 1010 10 O/SO 7.4
Ieri h: 19:50 molto_nuvoloso Molto Nuvoloso 13 10 81 1010 10 O 7.4
Ieri h: 19:20 coperto_pioggia Pioggia Debole 13 10 81 1010 10 O/SO 9.3
Ieri h: 18:50 molto_nuvoloso Molto Nuvoloso 13 10 81 1010 10 SO 13
Ieri h: 17:50 sereno Sereno 14 10 76 1009 10 O/SO 11.1
Ieri h: 17:20 poco_nuvoloso Poco Nuvoloso 15 10 72 1009 10 O/SO 14.8
Ieri h: 16:50 nuvoloso Nuvoloso 15 9 67 1009 10 O/SO 13
Ieri h: 16:20 molto_nuvoloso Molto Nuvoloso 14 10 76 1009 10 O 13
Ieri h: 15:50 nuvoloso Nuvoloso 14 10 76 1009 10 O 13
Ieri h: 15:20 nuvoloso Nuvoloso 15 10 72 1009 10 O 14.8
Ieri h: 14:50 nuvoloso Nuvoloso 15 10 72 1009 10 O 18.5
Ieri h: 14:20 molto_nuvoloso Molto Nuvoloso 16 10 67 1009 10 O 20.3
Ieri h: 13:50 molto_nuvoloso Molto Nuvoloso 16 9 63 1009 10 O 22.2
Ieri h: 13:20 nuvoloso Nuvoloso 16 10 67 1009 10 O/SO 22.2
Ieri h: 12:50 poco_nuvoloso Poco Nuvoloso 15 10 72 1009 10 O 22.2
Ieri h: 12:20 nuvoloso Nuvoloso 15 9 67 1009 10 O 22.2
Ieri h: 11:50 molto_nuvoloso Molto Nuvoloso 16 10 67 1008 10 O/SO 24
Ieri h: 11:20 molto_nuvoloso Molto Nuvoloso 15 10 72 1008 10 O 22.2
Ieri h: 10:50 molto_nuvoloso Molto Nuvoloso 14 10 76 1008 10 O/SO 20.3
Ieri h: 10:20 poco_nuvoloso Poco Nuvoloso 14 11 82 1008 10 SO 22.2
Ieri h: 09:50 poco_nuvoloso Poco Nuvoloso 14 11 82 1008 10 SO 18.5
Ieri h: 09:20 poco_nuvoloso Poco Nuvoloso 13 10 81 1008 10 SO 16.7
Ieri h: 08:50 nuvoloso Nuvoloso 12 10 87 1007 10 S/SO 14.8
Ieri h: 08:20 poco_nuvoloso Poco Nuvoloso 12 10 87 1007 10 S/SO 14.8
Ieri h: 07:50 nuvoloso Nuvoloso 12 10 87 1006 10 SO 14.8
Ieri h: 07:20 nuvoloso Nuvoloso 12 10 87 1006 10 SO 13
Ieri h: 06:50 sereno Sereno 12 10 87 1006 10 S/SO 14.8